Location: Ellerstadt
(49.4644°N, 8.2615°E)
Time: 12:08:52
(UTC+00:00)

Courier 1B - All Passes

Search period start: 13 June 2021 00:00
Search period end: 23 June 2021 00:00
Orbit: 962 x 1209 km, 28.3° (Epoch: 12 June)

Date Brightness Start Highest point End Pass type
(mag) Time Alt. Az. Time Alt. Az. Time Alt. Az.
13 Jun - 14:56:58 10° S 14:59:18 12° S 15:01:34 10° SSE daylight
13 Jun - 16:49:39 10° SSW 16:51:54 12° S 16:54:06 10° S daylight
14 Jun - 14:04:10 10° S 14:05:49 11° SSE 14:07:27 10° SSE daylight
14 Jun - 15:55:35 10° SSW 15:58:27 13° S 16:01:15 10° SSE daylight
15 Jun - 15:01:49 10° SSW 15:04:59 13° S 15:08:04 10° SSE daylight
16 Jun - 14:08:18 10° SSW 14:11:28 13° S 14:14:37 10° SSE daylight
16 Jun - 16:01:49 10° SSW 16:04:07 12° S 16:06:24 10° S daylight
17 Jun - 13:15:03 10° SSW 13:17:58 12° S 13:20:51 10° SSE daylight
17 Jun - 15:07:32 10° SSW 15:10:39 13° S 15:13:42 10° SSE daylight
18 Jun - 12:22:15 10° S 12:24:28 11° SSE 12:26:39 10° SSE daylight
18 Jun - 14:13:37 10° SSW 14:17:09 14° S 14:20:37 10° SSE daylight
19 Jun - 13:19:58 10° SSW 13:23:38 14° S 13:27:15 10° SSE daylight
19 Jun - 15:14:12 10° SSW 15:16:17 11° SSW 15:18:21 10° S daylight
20 Jun - 12:26:32 10° SSW 12:30:06 14° S 12:33:36 10° SSE daylight
20 Jun - 14:19:39 10° SW 14:22:48 13° S 14:25:53 10° SSE daylight
21 Jun - 11:33:26 10° SSW 11:36:33 13° S 11:39:40 10° SE daylight
21 Jun - 13:25:37 10° SW 13:29:16 14° S 13:32:53 10° SSE daylight
22 Jun - 10:40:50 10° S 10:43:02 11° SSE 10:45:13 10° SSE daylight
22 Jun - 12:31:51 10° SSW 12:35:44 14° S 12:39:35 10° SSE daylight
22 Jun - 14:27:03 10° SSW 14:28:24 10° SSW 14:29:44 10° S daylight
